Regional Weather Roundup
Issued by NWS

Home | Current Version | Previous Version | Text Only | Print | Product List | Glossary Off
Versions: 1 2 3 4 5 6 7 8 9 10 11 12 13 14 15 16 17 18 19 20 21 22 23 24 25 26 27

000
ASUS45 KBOU 260507
RWRCO

WEATHER ROUNDUP FOR COLORADO
NATIONAL WEATHER SERVICE DENVER/BOULDER CO
1100 PM MDT SAT MAR 25 2017

NOTE: "FAIR" INDICATES FEW OR NO CLOUDS BELOW 12000 FEET WITH NO
SIGNIFICANT WEATHER AND/OR OBSTRUCTIONS TO VISIBILITY.

COZ001>005-013-030-031-260600-
...NORTHWEST COLORADO...

CITY           SKY/WX    TMP DP  RH WIND       PRES   REMARKS
CRAIG          CLOUDY    43  34  70 SW7       29.92S
HAYDEN         CLOUDY    41  34  75 NE7       29.92S
MEEKER         MOCLDY    43  33  68 CALM      29.91S
MOUNT WERNER   NOT AVBL
STEAMBOAT SPGS CLOUDY    38  35  86 CALM      29.94F
WALDEN         NOT AVBL
$$

COZ006>008-011-260600-
...WEST CENTRAL VALLEYS...

CITY           SKY/WX    TMP DP  RH WIND       PRES   REMARKS
GRAND JUNCTION MOCLDY    45  39  79 CALM      29.87S
MONTROSE       CLOUDY    45  38  76 S6        29.93S
EAGLE          FAIR      42  33  70 E6        29.93F
RIFLE          FAIR      45  36  70 E10       29.89F
DELTA          FAIR      49  34  56 N8        29.89F
NUCLA          DRIZZLE   41  37  87 SE8       29.97F
$$

COZ017>023-064>068-260600-
...SOUTHWEST COLORADO...

CITY           SKY/WX    TMP DP  RH WIND       PRES   REMARKS
DURANGO        LGT RAIN  38  33  82 SW9       29.95F
CORTEZ         CLOUDY    40  37  89 E8        29.96F
PAGOSA SPRINGS LGT RAIN  39  37  92 CALM      29.97F
TELLURIDE      NOT AVBL
WOLF CREEK PAS HVY SNOW  23  23 100 S15       30.06F VSB 1/4 WCI  10
$$

COZ009-010-012-014-032>034-037-058>063-260600-
...CENTRAL COLORADO...

CITY           SKY/WX    TMP DP  RH WIND       PRES   REMARKS
ASPEN          CLOUDY    36  34  92 S3        29.93F
BUENA VISTA    FAIR      41  28  60 N5        29.90F
COPPER MTN     HVY SNOW  30  25  80 NW5       30.01F VSB 1/4 WCI  25
BERTHOUD PASS  SNOW      23  12  63 NW14      30.03S VSB<1/4 WCI  11
COTTONWOOD PAS FAIR      36  28  75 SE12      29.95F
GUNNISON       FAIR      35  30  82 S6        29.93S WCI  30
KREMMLING      LGT RAIN  41  36  81 N3        29.96F
LEADVILLE      FAIR      29  27  92 N3        29.94F
MONARCH PASS   MOCLDY    28  21  74 SW9       30.11F WCI  20
SALIDA         FAIR      42  31  64 W3        29.97F
SUNLIGHT       MOCLDY    27  23  86 SW8       30.02F WCI  18
WILKERSON PASS FAIR      28  27  93 SW7       30.01F WCI  21
$$

COZ069>075-260600-
...SAN LUIS VALLEY/SANGRE DE CRISTO MOUNTAINS...

CITY           SKY/WX    TMP DP  RH WIND       PRES   REMARKS
ALAMOSA        MOCLDY    42  33  70 S15G23    29.91R
LA VETA PASS   NOT AVBL
SAGUACHE       MOCLDY    43  28  56 NW18      29.88S
$$

COZ035-036-038>040-260600-
...NORTHERN COLORADO FRONT RANGE...

CITY           SKY/WX    TMP DP  RH WIND       PRES   REMARKS
DENVER INTL AP CLOUDY    47  35  63 S14       29.82S
DMNS CITY PARK   N/A     52  29  41 SW5       29.83S
AURORA         CLOUDY    50  34  54 S15       29.84R
FRONT RANGE AP NOT AVBL
ERIE MUNI ARPT FAIR      47  31  54 CALM      29.82S
BOULDER MUN AP CLOUDY    52  23  32 NW6       29.81F
CENTENNIAL     CLOUDY    49  32  52 SW10      29.85R
BROOMFIELD     NOT AVBL
FORT COLLINS   FAIR      45  29  53 CALM      29.83S
LONGMONT       CLOUDY    51  29  43 NW10      29.83F
$$

COZ041-046-047-076>085-087-088-260600-
...PIKES PEAK/PALMER DIVIDE AND SOUTHERN FOOTHILLS...

CITY           SKY/WX    TMP DP  RH WIND       PRES   REMARKS
COLO. SPRINGS  MOCLDY    44  30  57 CALM      29.89F
A. F. ACADEMY  FAIR      42  31  64 CALM      29.88F
SCHRIEVER AFB  FAIR      42  27  56 CALM      29.89F
ELLICOTT         N/A    N/A N/A N/A SE12      29.84F
FALCON         FAIR      38  28  69 CALM      29.91S
FORT CARSON    FAIR      44  28  54 CALM      29.86F
LIMON          FAIR      41  37  86 SE3       29.86S
MONUMENT HILL  MOCLDY    39  30  70 S10       29.90F
TRINIDAD       FAIR      52  28  39 SE6       29.81F
$$

COZ042>045-048>051-090-091-260600-
...NORTHEAST COLORADO...

CITY           SKY/WX    TMP DP  RH WIND       PRES   REMARKS
GREELEY ARPT   FAIR      46  34  62 E8        29.83S
AKRON          FAIR      44  32  62 S10       29.85R
BURLINGTON     FAIR      43  30  60 SE14      29.85F
WRAY           NOT AVBL
STERLING       FAIR      46  32  57 CALM      29.82S
HOLYOKE        FAIR      41  34  75 SE6       29.85F
FORT MORGAN    FAIR      43  31  62 E3        29.84S
$$

COZ086-089-092>099-260600-
...SOUTHEAST COLORADO...

CITY           SKY/WX    TMP DP  RH WIND       PRES   REMARKS
PUEBLO         FAIR      49  29  46 E10       29.80F
LA JUNTA       FAIR      50  26  39 E12       29.80F
LAMAR          FAIR      51  21  30 SE12      29.81F
SPRINGFIELD      N/A     43  26  51 SE13      29.84F
$$




USA.gov is the U.S. government's official web portal to all federal, state and local government web resources and services.